This demonstration page uses our WeatherBlox Daily Observations layout. Learn more.

Left ArrowRight Arrow

39.18361, -96.57167

Hourly Observations for January 24, 2022

Temp ( °F °C ) Dew Point ( °F °C ) Humidity (%) Winds ( mph kmh ) Pressure ( in mb ) Visibility ( mi km ) Precip ( " mm )
12:52 am 00:52 Cloudy 49 9.4 29 -1.7 46 46 WSW 15 24 29.78 1008 10 16 0.00 0.00
1:52 am 01:52 Clear 47 8.3 28 -2.2 48 48 WSW 9 15 29.77 1008 10 16 0.00 0.00
2:52 am 02:52 Clear 46 7.8 28 -2.2 50 50 WSW 10 17 29.75 1007 10 16 0.00 0.00
3:52 am 03:52 Clear 45 7.2 28 -2.2 52 52 W 8 13 29.74 1007 10 16 0.00 0.00
4:52 am 04:52 Cloudy 44 6.7 27 -2.8 51 51 WSW 7 11 29.73 1007 10 16 0.00 0.00
5:52 am 05:52 Clear 44 6.7 27 -2.8 51 51 WSW 7 11 29.74 1007 10 16 0.00 0.00
6:52 am 06:52 Clear 39 3.9 26 -3.3 60 60 Calm 29.75 1008 10 16 0.00 0.00
7:52 am 07:52 Cloudy 40 4.4 27 -2.8 60 60 Calm 29.77 1008 10 16 0.00 0.00
8:52 am 08:52 Sunny 44 6.7 27 -2.8 51 51 SSW 3 6 29.78 1009 10 16 0.00 0.00
9:52 am 09:52 Sunny 51 10.6 28 -2.2 41 41 VRB 5 7 29.80 1009 10 16 0.00 0.00
10:52 am 10:52 Sunny 55 12.8 29 -1.7 37 37 N 9 15 29.83 1010 10 16 0.00 0.00
11:52 am 11:52 Sunny 55 12.8 29 -1.7 37 37 N 15 24 29.85 1011 10 16 0.00 0.00
12:52 pm 12:52 Sunny 55 12.8 28 -2.2 35 35 N 15 24 29.85 1011 10 16 0.00 0.00
1:52 pm 13:52 Mostly Cloudy 53 11.7 28 -2.2 38 38 NNE 17 28 29.87 1012 10 16 0.00 0.00
2:52 pm 14:52 Cloudy 50 10 29 -1.7 44 44 N 10 17 29.91 1013 10 16 0.00 0.00
3:52 pm 15:52 Cloudy 48 8.9 26 -3.3 42 42 N 15 24 29.93 1014 10 16 0.00 0.00
4:52 pm 16:52 Cloudy 46 7.8 24 -4.4 42 42 N 10 17 29.96 1015 10 16 0.00 0.00
5:52 pm 17:52 Clear 42 5.6 24 -4.4 49 49 N 6 9 30.00 1016 10 16 0.00 0.00
6:52 pm 18:52 Clear 38 3.3 24 -4.4 57 57 NNE 9 15 30.04 1017 10 16 0.00 0.00
7:52 pm 19:52 Clear 35 1.7 23 -5 61 61 NNE 12 19 30.07 1018 10 16 0.00 0.00
8:52 pm 20:52 Clear 29 -1.7 19 -7.2 66 66 NNE 8 13 30.10 1019 10 16 0.00 0.00
9:52 pm 21:52 Clear 27 -2.8 16 -8.9 63 63 NE 16 26 30.14 1021 10 16 0.00 0.00
10:52 pm 22:52 Clear 25 -3.9 14 -10 63 63 NNE 17 28 30.16 1022 10 16 0.00 0.00
11:52 pm 23:52 Clear 22 -5.6 12 -11.1 66 66 NE 12 19 30.20 1023 10 16 0.00 0.00

Powered by AerisWeather